Regional Weather Roundup
Issued by NWS Sterling, VA

Home | Current Version | Previous Version | Text Only | Print | Product List | Glossary On
Versions: 1 2 3 4 5 6 7 8 9 10 11 12 13 14 15 16 17 18 19 20 21 22 23 24 25 26 27 28
000
ASUS41 KLWX 281911
RWRLWX

REGIONAL WEATHER ROUNDUP
NATIONAL WEATHER SERVICE BALTIMORE MD/WASHINGTON DC
300 PM EDT WED JUN 28 2017

Note: "FAIR" indicates few or no clouds below 12,000 feet
with no significant weather and/or obstructions to visibility.
 TC=TEMPERATURE CELSIUS

 * =Non NWS site. Station does not report precipitation (e.g. rain,
    snow, etc.), thunder, or fog.

DCZ001-MDZ009-015-VAZ040>042-051-053>054-282000-
WASHINGTON METRO

CITY           SKY/WX    TMP DP  RH WIND       PRES   REMARKS
WASHINGTON NAT MOSUNNY   81  47  30 VRB5      30.17S
DULLES         MOSUNNY   78  45  30 VRB5      30.17F
ANDREWS AFB    SUNNY     79  44  28 CALM      30.17R
FT BELVOIR     MOSUNNY   81  47  30 NW9       30.16F
QUANTICO       PTSUNNY   79  53  40 S7        30.18F
COLLEGE PARK*  SUNNY     79  45  30 W6        30.17S
LEESBURG*      SUNNY     81  52  36 W7        30.19S
MANASSAS*      MOSUNNY   80  51  36 W7        30.18F
GAITHERSBURG*  SUNNY     78  48  34 VRB5      30.19S

$$

MDZ006>007-011-014-282000-
BALTIMORE METRO

CITY           SKY/WX    TMP DP  RH WIND       PRES   REMARKS
BWI AIRPORT    MOSUNNY   80  44  27 VRB6      30.16R
MD SCIENCE CTR   N/A     80  44  27 MISG      30.15F
MARTIN STATE     N/A     81  54  39 SE9       30.17S
ANNAPOLIS      MOSUNNY   74  53  48 SE7       30.17R
FORT MEADE*    SUNNY     79  45  29 NW7       30.19S

$$

MDZ012-015-019>023-282000-
MARYLAND EASTERN SHORE

CITY           SKY/WX    TMP DP  RH WIND       PRES   REMARKS
OCEAN CITY     SUNNY     72  56  57 SE9       30.19S
SALISBURY      MOSUNNY   78  47  33 CALM      30.17S
BAY BRIDGE AP* SUNNY     77  50  38 W5        30.17S
CAMBRIDGE*     SUNNY     77  48  36 NW7       30.18R

$$

MDZ017>025-282000-
SOUTHERN MARYLAND

CITY           SKY/WX    TMP DP  RH WIND       PRES   REMARKS
PATUXENT RIVER PTSUNNY   76  52  43 SE8       30.18S
ST INIGOES     SUNNY     77  51  40 S9        30.18S
LEONARDTOWN*   PTSUNNY   77  52  41 SW8       30.19S

$$

MDZ003>005-282000-
NORTH CENTRAL MARYLAND

CITY           SKY/WX    TMP DP  RH WIND       PRES   REMARKS
FREDERICK*     SUNNY     79  37  22 SW7       30.20S
HAGERSTOWN APT MOSUNNY   77  45  32 W3        30.17F
WESTMINSTER*   MOSUNNY   79  46  31 S5        30.18S

$$

MDZ501>502-282000-
WESTERN MARYLAND

CITY           SKY/WX    TMP DP  RH WIND       PRES   REMARKS
OAKLAND*       NOT AVBL
CUMBERLAND*    SUNNY     77  48  36 SE3       30.20S

$$

VAZ025>031-282000-
SHENANDOAH VALLEY

CITY           SKY/WX    TMP DP  RH WIND       PRES   REMARKS
WINCHESTER*    SUNNY     77  45  31 CALM      30.17F
FRONT ROYAL*   MOSUNNY   81  52  36 S8        30.16F
LURAY*         SUNNY     77  50  38 S7        30.18F
NEW MARKET*    SUNNY     78  47  33 S3        30.16F
STAUNTON*      SUNNY     76  49  38 SE5       30.21F
WAYNESBORO*    SUNNY     75  51  41 W6        30.21S

$$

WVZ021-048>050-054>055-282000-
EASTERN WEST VIRGINIA PANHANDLE

CITY           SKY/WX    TMP DP  RH WIND       PRES   REMARKS
MARTINSBURG    SUNNY     77  45  32 VRB7      30.16F
PETERSBURG*    SUNNY     80  50  34 E3        30.16F

$$

VAZ036>039-050-282000-
CENTRAL FOOTHILLS

CITY           SKY/WX    TMP DP  RH WIND       PRES   REMARKS
CHARLOTTESVILL SUNNY     80  47  31 CALM      30.18F
CULPEPER*      SUNNY     80  52  38 S3        30.18F
ORANGE*        SUNNY     79  46  31 CALM      30.18S
GORDONSVILLE*  SUNNY     79  47  32 CALM      30.17F
WARRENTON*     SUNNY     82  44  25 NW5       30.18S

$$

VAZ055>057-282000-
NORTH AND CENTRAL PIEDMONT

CITY           SKY/WX    TMP DP  RH WIND       PRES   REMARKS
FREDERICKSBRG* SUNNY     80  51  36 NW6       30.17F
STAFFORD*      SUNNY     80  47  32 W3        30.21F

$$

NCZ024-NYZ072-PAZ021-071-VAZ022-071-282000-
OTHER REGIONAL OBSERVATIONS

CITY           SKY/WX    TMP DP  RH WIND       PRES   REMARKS
NEW YORK CITY  MOSUNNY   76  48  37 VRB7      30.12F
PHILADELPHIA   MOSUNNY   79  47  32 W10       30.14S
PITTSBURGH     CLOUDY    74  45  35 S8        30.16F
ROANOKE        MOSUNNY   80  47  31 W6        30.21F
RICHMOND       MOSUNNY   79  49  34 SW9       30.19S
RALEIGH        MOSUNNY   82  51  34 VRB6      30.20F

$$

ANZ530>537-282000-
MARINE OBSERVATIONS

STATION/POSITION TIME  TEMP    WIND        PRES
                       AIR SEA DIR/SP/G
                 (UTC) (F)     (DEG/KT/KT) (MB)
THOMAS PT LIGHT  1900   73 78  160/  7/  8   N/A
BALT KEY BRIDGE  1842   77     350/  2/  4 1021.1S
COVE POINT       1842   73     120/  4/  7 1022.6S
LEWISETTA        1842   73 79   70/  4/  6 1022.3S
SOLOMONS ISLAND  1842   73 79  120/  9/ 10   N/A
PINEY POINT      1848          280/  3/  3   N/A

$$





USA.gov is the U.S. government's official web portal to all federal, state and local government web resources and services.